Location: Gilevgi
(36.8751°N, 30.0581°E)
Time: 18:11:52
(UTC+00:00)

ARIANE 5 R/B - Pass Details

Date: 11 December 2025
Orbit: 747 x 792 km, 98.8° (Epoch: 15 January)

Event Time Altitude Azimuth Distance (km) Brightness Sun altitude
Rises 15:33:45 0° 161° (SSE) 3,195 5.8 -9.9°
Reaches altitude 10° 15:36:01 10° 160° (SSE) 2,279 5.0 -10.4°
Maximum altitude 15:41:02 77° 75° (ENE) 788 2.4 -11.3°
Drops below altitude 10° 15:46:08 10° 350° (N) 2,323 4.9 -12.3°
Sets 15:48:28 0° 349° (N) 3,261 5.7 -12.7°
